| time (UTC) | temp F | wind direction | speed MPH | gust MPH | rain 1hr in | rain 24hr in | rain mn in | humidity % | barometer mb |
| 20260504175539 | 56 | 270 | 3.0 | 6.0 | 0.00 | 0.30 | 0.30 | 60 | 997.8 |
| 20260504174540 | 56 | 248 | 3.0 | 7.0 | 0.00 | 0.30 | 0.30 | 60 | 997.7 |
| 20260504173519 | 55 | 270 | 4.0 | 8.0 | 0.00 | 0.30 | 0.30 | 61 | 997.7 |
| 20260504172541 | 55 | 293 | 4.0 | 9.0 | 0.00 | 0.30 | 0.30 | 60 | 997.7 |
| 20260504171519 | 56 | 270 | 4.0 | 11.0 | 0.00 | 0.30 | 0.30 | 58 | 997.7 |
| 20260504170519 | 56 | 270 | 6.0 | 11.0 | 0.00 | 0.30 | 0.30 | 56 | 997.7 |
| 20260504150520 | 59 | 270 | 7.0 | 15.0 | 0.00 | 0.30 | 0.30 | 61 | 996.9 |
| 20260504140519 | 60 | 248 | 3.0 | 9.0 | 0.00 | 0.30 | 0.30 | 65 | 996.6 |
| 20260504130519 | 58 | 248 | 3.0 | 11.0 | 0.00 | 0.30 | 0.30 | 73 | 997.0 |
| 20260504110559 | 54 | 270 | 2.0 | 6.0 | 0.00 | 0.30 | 0.30 | 84 | 997.7 |
| 20260504100518 | 51 | 270 | 3.0 | 6.0 | 0.00 | 0.30 | 0.30 | 92 | 998.1 |
| 20260504081538 | 46 | 0.0 | 0.0 | 0.00 | 0.30 | 0.30 | 95 | 998.3 | |
| 20260504080518 | 45 | 90 | 1.0 | 3.0 | 0.01 | 0.30 | 0.30 | 95 | 998.2 |
| 20260504050518 | 40 | 0.0 | 2.0 | 0.10 | 0.14 | 0.14 | 92 | 999.9 | |
| 20260504045518 | 40 | 0.0 | 0.0 | 0.10 | 0.12 | 0.12 | 92 | 1000.1 | |
| 20260504044520 | 40 | 0.0 | 0.0 | 0.09 | 0.10 | 0.10 | 91 | 1000.2 | |
| 20260504043520 | 40 | 0.0 | 0.0 | 0.09 | 0.09 | 0.09 | 91 | 1000.1 | |
| 20260504042518 | 40 | 0.0 | 0.0 | 0.06 | 0.07 | 0.06 | 90 | 1000.1 | |
| 20260504041519 | 40 | 0.0 | 0.0 | 0.06 | 0.06 | 0.06 | 89 | 1000.2 | |
| 20260504040520 | 40 | 0.0 | 1.0 | 0.04 | 0.05 | 0.04 | 87 | 1000.1 | |
| 20260504035520 | 41 | 0.0 | 0.0 | 0.02 | 0.02 | 0.02 | 85 | 1000.2 | |
| 20260504034518 | 41 | 0.0 | 0.0 | 0.01 | 0.02 | 0.01 | 83 | 1000.1 | |
| 20260504033540 | 41 | 0.0 | 0.0 | 0.00 | 0.01 | 0.00 | 81 | 1000.2 | |
| 20260504032520 | 42 | 0.0 | 0.0 | 0.00 | 0.01 | 0.00 | 79 | 1000.2 | |
| 20260504031524 | 42 | 0.0 | 2.0 | 0.00 | 0.01 | 0.00 | 77 | 1000.5 | |
| 20260504030518 | 42 | 0.0 | 0.0 | 0.00 | 0.01 | 0.00 | 77 | 1000.6 | |
| 20260504025520 | 42 | 0.0 | 0.0 | 0.00 | 0.01 | 0.00 | 76 | 1000.9 | |
| 20260504024520 | 42 | 0.0 | 0.0 | 0.00 | 0.01 | 0.00 | 75 | 1001.2 | |
| 20260504023520 | 42 | 0.0 | 0.0 | 0.00 | 0.01 | 0.00 | 75 | 1001.4 | |
| 20260504022520 | 42 | 0.0 | 0.0 | 0.00 | 0.01 | 0.00 | 75 | 1001.4 | |
| 20260504021540 | 42 | 0.0 | 0.0 | 0.00 | 0.01 | 0.00 | 74 | 1001.3 | |
| 20260504020603 | 42 | 0.0 | 0.0 | 0.00 | 0.01 | 0.00 | 74 | 1001.3 | |
| 20260504015520 | 42 | 0.0 | 0.0 | 0.00 | 0.01 | 0.00 | 74 | 1001.4 | |
| 20260504014600 | 42 | 0.0 | 1.0 | 0.00 | 0.01 | 0.00 | 75 | 1001.5 | |
| 20260504013520 | 42 | 0.0 | 0.0 | 0.00 | 0.01 | 0.00 | 75 | 1001.6 | |
| 20260504012540 | 42 | 0.0 | 0.0 | 0.00 | 0.01 | 0.00 | 76 | 1001.6 | |
| 20260504011520 | 42 | 0.0 | 0.0 | 0.00 | 0.01 | 0.00 | 75 | 1001.7 | |
| 20260504010520 | 42 | 0.0 | 0.0 | 0.00 | 0.01 | 0.00 | 75 | 1001.9 | |
| 20260504005520 | 42 | 0.0 | 2.0 | 0.00 | 0.01 | 0.00 | 75 | 1001.9 | |
| 20260504004520 | 42 | 0.0 | 1.0 | 0.00 | 0.01 | 0.00 | 75 | 1002.1 | |
| 20260504003520 | 43 | 0.0 | 0.0 | 0.00 | 0.01 | 0.00 | 74 | 1002.2 | |
| 20260504002519 | 43 | 0.0 | 1.0 | 0.00 | 0.01 | 0.00 | 74 | 1002.3 | |
| 20260504001520 | 43 | 0.0 | 1.0 | 0.00 | 0.01 | 0.00 | 75 | 1002.4 | |
| 20260504000520 | 43 | 0.0 | 1.0 | 0.00 | 0.01 | 0.00 | 75 | 1002.4 | |
| 20260503235520 | 43 | 0.0 | 0.0 | 0.00 | 0.01 | 0.00 | 76 | 1002.5 | |
| 20260503234520 | 43 | 0.0 | 0.0 | 0.00 | 0.01 | 0.00 | 79 | 1002.8 | |
| 20260503233520 | 43 | 0.0 | 0.0 | 0.00 | 0.01 | 0.00 | 80 | 1002.7 | |
| 20260503232520 | 43 | 0.0 | 0.0 | 0.00 | 0.01 | 0.00 | 82 | 1002.8 | |
| 20260503231519 | 43 | 0.0 | 2.0 | 0.00 | 0.01 | 0.00 | 82 | 1002.9 | |
| 20260503230520 | 43 | 0.0 | 2.0 | 0.00 | 0.01 | 0.00 | 83 | 1003.0 | |
| 20260503225520 | 43 | 0.0 | 0.0 | 0.00 | 0.01 | 0.00 | 83 | 1003.1 | |
| 20260503224520 | 43 | 0.0 | 0.0 | 0.00 | 0.01 | 0.00 | 82 | 1003.1 | |
| 20260503223524 | 43 | 0.0 | 0.0 | 0.00 | 0.01 | 0.00 | 82 | 1003.2 | |
| 20260503222523 | 43 | 135 | 1.0 | 4.0 | 0.00 | 0.01 | 0.00 | 82 | 1003.3 |
| 20260503221523 | 43 | 0.0 | 1.0 | 0.00 | 0.01 | 0.00 | 83 | 1003.4 | |
| 20260503220540 | 44 | 135 | 1.0 | 3.0 | 0.00 | 0.01 | 0.00 | 83 | 1003.3 |
| 20260503215523 | 44 | 0.0 | 2.0 | 0.00 | 0.01 | 0.01 | 84 | 1003.4 | |
| 20260503214540 | 44 | 0.0 | 0.0 | 0.00 | 0.01 | 0.01 | 85 | 1003.4 | |
| 20260503213520 | 44 | 0.0 | 2.0 | 0.00 | 0.01 | 0.01 | 85 | 1003.5 | |
| 20260503212520 | 44 | 0.0 | 1.0 | 0.00 | 0.01 | 0.01 | 85 | 1003.5 | |
| 20260503211519 | 44 | 0.0 | 0.0 | 0.00 | 0.01 | 0.01 | 85 | 1003.7 | |
| 20260503210543 | 44 | 0.0 | 2.0 | 0.00 | 0.01 | 0.01 | 85 | 1003.7 | |
| 20260503205519 | 44 | 0.0 | 0.0 | 0.00 | 0.01 | 0.01 | 85 | 1003.8 | |
| 20260503204519 | 44 | 0.0 | 0.0 | 0.00 | 0.01 | 0.01 | 84 | 1003.8 | |
| 20260503203539 | 45 | 0.0 | 1.0 | 0.00 | 0.01 | 0.01 | 84 | 1003.7 | |
| 20260503202540 | 45 | 113 | 1.0 | 2.0 | 0.00 | 0.01 | 0.01 | 83 | 1003.7 |
| 20260503201540 | 45 | 0.0 | 1.0 | 0.00 | 0.01 | 0.01 | 83 | 1003.8 | |
| 20260503200520 | 45 | 0.0 | 2.0 | 0.00 | 0.01 | 0.01 | 83 | 1003.8 | |
| 20260503195519 | 45 | 0.0 | 0.0 | 0.00 | 0.01 | 0.01 | 82 | 1004.0 | |
| 20260503194519 | 45 | 0.0 | 1.0 | 0.00 | 0.01 | 0.01 | 82 | 1003.9 | |
| 20260503193520 | 45 | 113 | 1.0 | 2.0 | 0.00 | 0.01 | 0.01 | 82 | 1003.8 |
| 20260503192519 | 45 | 0.0 | 0.0 | 0.00 | 0.01 | 0.01 | 82 | 1004.0 | |
| 20260503191519 | 45 | 0.0 | 3.0 | 0.00 | 0.01 | 0.01 | 81 | 1003.9 | |
| 20260503190519 | 45 | 113 | 1.0 | 3.0 | 0.00 | 0.01 | 0.01 | 81 | 1003.9 |
| 20260503185519 | 45 | 0.0 | 0.0 | 0.00 | 0.01 | 0.01 | 81 | 1004.0 | |
| 20260503184519 | 46 | 0.0 | 0.0 | 0.00 | 0.01 | 0.01 | 81 | 1003.9 | |
| 20260503183519 | 46 | 0.0 | 1.0 | 0.00 | 0.01 | 0.01 | 81 | 1003.9 | |
| 20260503182519 | 46 | 0.0 | 1.0 | 0.00 | 0.01 | 0.01 | 81 | 1003.9 | |
| 20260503181519 | 46 | 0.0 | 0.0 | 0.00 | 0.01 | 0.01 | 80 | 1003.9 | |
| 20260503180519 | 46 | 0.0 | 1.0 | 0.00 | 0.01 | 0.01 | 79 | 1003.9 |